Simultaneous Nadir Overpasses (SNOs) Predictions

Prediction of SNOs between GOES-16 and NOAA-20 Satellite Orbit:

Table of predicted SNOs for the next 14.0 days since TLE Epoch: 7/18/2025
Index Date Time (GOES-16) GOES-16 Lat,Lon NOAA-20 Lat,Lon Distance(km) Time Diff (sec)
1 07/19/2025 08:17:24 -0.01,-104.71 -0.24,-103.70 116.02 80
2 07/20/2025 20:39:21 0.01,-104.73 -0.97,-108.99 486.87 80
3 07/21/2025 20:23:16 0.01,-104.73 0.04,-104.46 29.72 80
4 07/24/2025 08:26:20 -0.01,-104.71 0.09,-105.20 55.97 80
5 07/25/2025 08:04:55 -0.01,-104.71 -0.93,-100.67 460.55 80
6 07/26/2025 20:26:52 0.01,-104.73 -0.28,-105.97 141.83 80
7 07/27/2025 20:10:47 0.01,-104.73 0.73,-101.44 375.28 80
8 07/29/2025 08:32:35 -0.01,-104.73 0.47,-106.70 225.44 80
9 07/30/2025 08:11:10 -0.00,-104.74 -0.55,-102.17 291.63 80
10 07/31/2025 20:33:07 0.01,-104.75 -0.59,-107.48 310.72 80
